When you browse on this site, cookies collect data to enhance your experience and personalize the content and advertising you see.
Visit our Privacy Policy to learn more. By continuing to use the site, you agree to this use of cookies and data.

Météo par heure à Soledar

Ce jour, 25 Septembre, Vendredi

Heure Température Précipitation Vent Pression Humidité
00:00 +17°C° 0 mm 3 m/s 753 mmHg 40%
01:00 +17°C° 0 mm 3 m/s 753 mmHg 41%
02:00 +16°C° 0 mm 2 m/s 753 mmHg 43%
03:00 +16°C° 0 mm 2 m/s 753 mmHg 44%
04:00 +15°C° 0 mm 2 m/s 753 mmHg 46%
05:00 +14°C° 0 mm 3 m/s 753 mmHg 48%
06:00 +13°C° 0 mm 3 m/s 753 mmHg 50%
07:00 +16°C° 0 mm 3 m/s 753 mmHg 46%
08:00 +19°C° 0 mm 4 m/s 753 mmHg 42%
09:00 +21°C° 0 mm 4 m/s 753 mmHg 39%
10:00 +22°C° 0 mm 5 m/s 752 mmHg 36%
11:00 +25°C° 0 mm 5 m/s 752 mmHg 32%
12:00 +27°C° 0 mm 5 m/s 752 mmHg 29%
13:00 +28°C° 0 mm 5 m/s 752 mmHg 29%
14:00 +28°C° 0 mm 5 m/s 752 mmHg 28%
15:00 +28°C° 0 mm 5 m/s 751 mmHg 28%
16:00 +27°C° 0 mm 4 m/s 751 mmHg 31%
17:00 +26°C° 0 mm 4 m/s 751 mmHg 34%
18:00 +25°C° 0 mm 3 m/s 750 mmHg 37%
19:00 +22°C° 0 mm 3 m/s 751 mmHg 39%
20:00 +21°C° 0 mm 4 m/s 751 mmHg 40%
21:00 +20°C° 0 mm 4 m/s 751 mmHg 42%
22:00 +20°C° 0 mm 4 m/s 751 mmHg 42%
23:00 +19°C° 0 mm 4 m/s 751 mmHg 43%

Demain, 26 Septembre, Samedi

Heure Température Précipitation Vent Pression Humidité
00:00 +18°C° 0 mm 4 m/s 750 mmHg 43%
01:00 +18°C° 0 mm 4 m/s 750 mmHg 44%
02:00 +18°C° 0 mm 4 m/s 750 mmHg 45%
03:00 +18°C° 0 mm 4 m/s 750 mmHg 46%
04:00 +17°C° 0 mm 4 m/s 750 mmHg 47%
05:00 +16°C° 0 mm 5 m/s 750 mmHg 48%
06:00 +15°C° 0 mm 5 m/s 750 mmHg 49%
07:00 +17°C° 0 mm 5 m/s 750 mmHg 44%
08:00 +19°C° 0 mm 6 m/s 750 mmHg 38%
09:00 +21°C° 0 mm 6 m/s 750 mmHg 33%
10:00 +23°C° 0 mm 7 m/s 750 mmHg 28%
11:00 +27°C° 0 mm 7 m/s 750 mmHg 22%
12:00 +29°C° 0 mm 7 m/s 750 mmHg 17%
13:00 +29°C° 0 mm 7 m/s 750 mmHg 17%
14:00 +31°C° 0 mm 8 m/s 750 mmHg 17%
15:00 +31°C° 0 mm 8 m/s 749 mmHg 16%
16:00 +29°C° 0 mm 7 m/s 749 mmHg 18%
17:00 +28°C° 0 mm 6 m/s 749 mmHg 19%
18:00 +27°C° 0 mm 5 m/s 749 mmHg 21%
19:00 +26°C° 0 mm 5 m/s 750 mmHg 25%
20:00 +23°C° 0 mm 6 m/s 750 mmHg 28%
21:00 +22°C° 0 mm 6 m/s 750 mmHg 32%
22:00 +22°C° 0 mm 7 m/s 750 mmHg 33%
23:00 +21°C° 0 mm 7 m/s 750 mmHg 35%

Après-demain, 27 Septembre, Dimanche

Heure Température Précipitation Vent Pression Humidité
00:00 +21°C° 0 mm 7 m/s 751 mmHg 36%
01:00 +20°C° 0 mm 7 m/s 751 mmHg 37%
02:00 +18°C° 0 mm 7 m/s 751 mmHg 37%
03:00 +17°C° 0 mm 7 m/s 751 mmHg 38%
04:00 +17°C° 0 mm 7 m/s 751 mmHg 41%
05:00 +16°C° 0 mm 7 m/s 751 mmHg 43%
06:00 +15°C° 0 mm 7 m/s 751 mmHg 46%
07:00 +16°C° 0 mm 7 m/s 751 mmHg 44%
08:00 +17°C° 0 mm 8 m/s 751 mmHg 42%
09:00 +20°C° 0 mm 8 m/s 752 mmHg 40%
10:00 +21°C° 0 mm 8 m/s 752 mmHg 37%
11:00 +23°C° 0 mm 9 m/s 751 mmHg 34%
12:00 +24°C° 0 mm 9 m/s 751 mmHg 32%
13:00 +27°C° 0 mm 9 m/s 751 mmHg 29%
14:00 +28°C° 0 mm 8 m/s 751 mmHg 27%
15:00 +31°C° 0 mm 8 m/s 751 mmHg 25%
16:00 +29°C° 0 mm 8 m/s 751 mmHg 27%
17:00 +28°C° 0 mm 7 m/s 752 mmHg 29%
18:00 +27°C° 0 mm 6 m/s 752 mmHg 31%
19:00 +26°C° 0.1 mm 6 m/s 752 mmHg 33%
20:00 +24°C° 0.1 mm 6 m/s 752 mmHg 35%
21:00 +23°C° 0.1 mm 6 m/s 752 mmHg 38%
22:00 +22°C° 0.4 mm 6 m/s 753 mmHg 41%
23:00 +21°C° 0.4 mm 6 m/s 753 mmHg 44%

28 Septembre, Lundi

Heure Température Précipitation Vent Pression Humidité
00:00 +20°C° 0.4 mm 6 m/s 753 mmHg 48%
01:00 +20°C° 0.4 mm 6 m/s 753 mmHg 51%
02:00 +19°C° 0.4 mm 6 m/s 753 mmHg 54%
03:00 +17°C° 0.4 mm 6 m/s 753 mmHg 57%
04:00 +17°C° 0.1 mm 6 m/s 753 mmHg 59%
05:00 +16°C° 0.1 mm 5 m/s 754 mmHg 60%
06:00 +16°C° 0.1 mm 5 m/s 754 mmHg 61%
07:00 +17°C° 0 mm 5 m/s 754 mmHg 59%
08:00 +17°C° 0 mm 5 m/s 754 mmHg 56%
09:00 +19°C° 0 mm 6 m/s 754 mmHg 54%
10:00 +20°C° 0.1 mm 6 m/s 754 mmHg 51%
11:00 +21°C° 0.1 mm 6 m/s 754 mmHg 48%
12:00 +23°C° 0.1 mm 5 m/s 755 mmHg 45%
13:00 +25°C° 0 mm 5 m/s 754 mmHg 43%
14:00 +25°C° 0 mm 4 m/s 754 mmHg 40%
15:00 +26°C° 0 mm 4 m/s 754 mmHg 38%
16:00 +26°C° 0 mm 4 m/s 754 mmHg 39%
17:00 +25°C° 0 mm 3 m/s 754 mmHg 41%
18:00 +24°C° 0 mm 3 m/s 754 mmHg 42%
19:00 +24°C° 0 mm 3 m/s 754 mmHg 43%
20:00 +22°C° 0 mm 4 m/s 754 mmHg 43%
21:00 +21°C° 0 mm 4 m/s 755 mmHg 44%
22:00 +21°C° 0 mm 4 m/s 754 mmHg 44%
23:00 +20°C° 0 mm 5 m/s 754 mmHg 43%

29 Septembre, Mardi

Heure Température Précipitation Vent Pression Humidité
00:00 +20°C° 0 mm 5 m/s 754 mmHg 43%
01:00 +19°C° 0.1 mm 5 m/s 754 mmHg 48%
02:00 +19°C° 0.1 mm 6 m/s 754 mmHg 52%
03:00 +17°C° 0.1 mm 6 m/s 754 mmHg 57%
04:00 +16°C° 0 mm 6 m/s 754 mmHg 57%
05:00 +16°C° 0 mm 6 m/s 754 mmHg 58%
06:00 +15°C° 0 mm 6 m/s 754 mmHg 59%
07:00 +15°C° 0 mm 7 m/s 754 mmHg 60%
08:00 +15°C° 0 mm 7 m/s 754 mmHg 61%
09:00 +15°C° 0 mm 7 m/s 754 mmHg 63%
10:00 +16°C° 0.1 mm 8 m/s 753 mmHg 57%
11:00 +18°C° 0.1 mm 8 m/s 753 mmHg 52%
12:00 +20°C° 0.1 mm 8 m/s 752 mmHg 47%
13:00 +21°C° 0 mm 8 m/s 752 mmHg 43%
14:00 +22°C° 0 mm 8 m/s 752 mmHg 40%
15:00 +24°C° 0 mm 8 m/s 751 mmHg 36%
16:00 +23°C° 0 mm 7 m/s 751 mmHg 36%
17:00 +23°C° 0 mm 7 m/s 750 mmHg 35%
18:00 +22°C° 0 mm 6 m/s 750 mmHg 35%
19:00 +22°C° 0 mm 6 m/s 749 mmHg 35%
20:00 +22°C° 0 mm 7 m/s 749 mmHg 34%
21:00 +21°C° 0 mm 8 m/s 749 mmHg 34%
22:00 +21°C° 0 mm 8 m/s 749 mmHg 37%
23:00 +20°C° 0 mm 8 m/s 749 mmHg 39%

30 Septembre, Mercredi

Heure Température Précipitation Vent Pression Humidité
00:00 +18°C° 0 mm 9 m/s 748 mmHg 42%
01:00 +17°C° 0.3 mm 8 m/s 748 mmHg 46%
02:00 +16°C° 0.3 mm 8 m/s 748 mmHg 50%
03:00 +16°C° 0.3 mm 7 m/s 748 mmHg 54%
04:00 +15°C° 0.2 mm 8 m/s 747 mmHg 56%
05:00 +15°C° 0.2 mm 8 m/s 747 mmHg 58%
06:00 +13°C° 0.2 mm 8 m/s 747 mmHg 59%
07:00 +13°C° 1.1 mm 8 m/s 747 mmHg 65%
08:00 +12°C° 1.1 mm 8 m/s 747 mmHg 70%
09:00 +12°C° 1.1 mm 8 m/s 747 mmHg 76%
10:00 +12°C° 1.9 mm 8 m/s 747 mmHg 77%
11:00 +13°C° 1.9 mm 8 m/s 747 mmHg 77%
12:00 +13°C° 1.9 mm 8 m/s 747 mmHg 78%
13:00 +15°C° 0 mm 8 m/s 747 mmHg 76%
14:00 +16°C° 0 mm 8 m/s 747 mmHg 74%
15:00 +17°C° 0 mm 8 m/s 747 mmHg 72%
16:00 +17°C° 0 mm 7 m/s 747 mmHg 73%
17:00 +17°C° 0 mm 7 m/s 747 mmHg 73%
18:00 +17°C° 0 mm 7 m/s 747 mmHg 74%
19:00 +16°C° 0.3 mm 6 m/s 747 mmHg 77%
20:00 +16°C° 0.3 mm 5 m/s 748 mmHg 80%
21:00 +15°C° 0.3 mm 5 m/s 748 mmHg 84%
22:00 +15°C° 0 mm 4 m/s 749 mmHg 85%
23:00 +14°C° 0 mm 3 m/s 749 mmHg 86%
Voir plus